{"data":{"norad_id":69142,"intl_designator":"2026-110U","name":"STARLINK-37655","alt_names":[],"object_type":"PAYLOAD","status":"ACTIVE","operator":null,"country":"US","launch_date":"2026-05-20","launch_site_code":"AFWTR","launch_vehicle":null,"mission":null,"orbit_class":"UNKNOWN","rcs_meters":null,"size_class":null,"mass_kg":null,"dimensions":null,"purposes":["comms"],"wikipedia_slug":null,"has_3d_model":false,"image_url":null,"decayed_at":null,"tle_current":{"epoch":"2026-09-18T02:47:18.922272Z","epoch_age_seconds":229086,"freshness":"STALE","line1":"1 69142U 26110U   26261.11619123  .00007894  00000+0  24661-3 0  9992","line2":"2 69142  97.2853  96.2522 0001426 104.4483 255.6918 15.33440618 19855","mean_motion":15.33440618,"eccentricity":0.0001426,"inclination_deg":97.2853,"raan_deg":96.2522,"arg_perigee_deg":104.4483,"mean_anomaly_deg":255.6918,"bstar":0.00024661,"rev_number":1985,"period_min":93.90647300566,"perigee_km":464.58030160611,"apogee_km":466.53212291025,"semimajor_km":6843.6932122582,"source":"CELESTRAK","updated_at":"2026-09-20T09:00:44.087933Z"}}}